EN

Hourly Weather Bolshie Lipyagi

Today, 28 October, Wednesday

Time Temperature Precipitation Wind Pressure Humidity
00:00 0°C° 0 mm 4 mps 761 mmHg 66%
01:00 0°C° 0 mm 4 mps 761 mmHg 67%
02:00 -1°C° 0 mm 4 mps 761 mmHg 67%
03:00 0°C° 0 mm 3 mps 761 mmHg 70%
04:00 -1°C° 0 mm 3 mps 761 mmHg 71%
05:00 -1°C° 0 mm 3 mps 761 mmHg 71%
06:00 -1°C° 0 mm 3 mps 760 mmHg 72%
07:00 -2°C° 0 mm 4 mps 761 mmHg 67%
08:00 -1°C° 0 mm 4 mps 761 mmHg 63%
09:00 0°C° 0 mm 5 mps 761 mmHg 58%
10:00 +1°C° 0 mm 5 mps 761 mmHg 54%
11:00 +2°C° 0 mm 5 mps 761 mmHg 51%
12:00 +5°C° 0 mm 5 mps 761 mmHg 47%
13:00 +5°C° 0 mm 5 mps 760 mmHg 46%
14:00 +6°C° 0 mm 5 mps 760 mmHg 44%
15:00 +6°C° 0 mm 4 mps 760 mmHg 42%
16:00 +5°C° 0 mm 4 mps 760 mmHg 45%
17:00 +4°C° 0 mm 4 mps 760 mmHg 48%
18:00 +3°C° 0 mm 3 mps 759 mmHg 52%
19:00 +2°C° 0 mm 3 mps 759 mmHg 53%
20:00 +1°C° 0 mm 4 mps 759 mmHg 54%
21:00 +1°C° 0 mm 4 mps 759 mmHg 55%
22:00 0°C° 0 mm 4 mps 759 mmHg 57%
23:00 +1°C° 0 mm 3 mps 759 mmHg 58%

Tomorrow, 29 October, Thursday

Time Temperature Precipitation Wind Pressure Humidity
00:00 0°C° 0 mm 3 mps 759 mmHg 60%
01:00 0°C° 0 mm 3 mps 759 mmHg 62%
02:00 0°C° 0 mm 3 mps 759 mmHg 63%
03:00 -1°C° 0 mm 3 mps 759 mmHg 65%
04:00 -1°C° 0 mm 3 mps 759 mmHg 66%
05:00 -1°C° 0 mm 3 mps 758 mmHg 68%
06:00 -1°C° 0 mm 3 mps 758 mmHg 69%
07:00 0°C° 0 mm 3 mps 758 mmHg 66%
08:00 0°C° 0 mm 4 mps 758 mmHg 63%
09:00 +1°C° 0 mm 4 mps 758 mmHg 60%
10:00 +3°C° 0 mm 4 mps 758 mmHg 55%
11:00 +5°C° 0 mm 4 mps 757 mmHg 50%
12:00 +6°C° 0 mm 5 mps 757 mmHg 45%
13:00 +7°C° 0 mm 5 mps 757 mmHg 45%
14:00 +7°C° 0 mm 5 mps 756 mmHg 44%
15:00 +8°C° 0 mm 5 mps 756 mmHg 43%
16:00 +7°C° 0 mm 4 mps 756 mmHg 47%
17:00 +6°C° 0 mm 4 mps 755 mmHg 51%
18:00 +5°C° 0 mm 4 mps 755 mmHg 54%
19:00 +4°C° 0 mm 4 mps 755 mmHg 55%
20:00 +4°C° 0 mm 4 mps 755 mmHg 57%
21:00 +4°C° 0 mm 4 mps 755 mmHg 58%
22:00 +4°C° 0 mm 4 mps 754 mmHg 58%
23:00 +5°C° 0 mm 4 mps 754 mmHg 59%

Day after tomorrow, 30 October, Friday

Time Temperature Precipitation Wind Pressure Humidity
00:00 +5°C° 0 mm 4 mps 753 mmHg 60%
01:00 +5°C° 0 mm 4 mps 753 mmHg 64%
02:00 +4°C° 0 mm 4 mps 753 mmHg 67%
03:00 +4°C° 0 mm 4 mps 753 mmHg 71%
04:00 +4°C° 0 mm 4 mps 752 mmHg 75%
05:00 +4°C° 0 mm 4 mps 752 mmHg 78%
06:00 +5°C° 0 mm 4 mps 752 mmHg 82%
07:00 +5°C° 0.4 mm 4 mps 752 mmHg 81%
08:00 +5°C° 0.4 mm 5 mps 752 mmHg 81%
09:00 +5°C° 0.4 mm 5 mps 752 mmHg 80%
10:00 +6°C° 0.1 mm 5 mps 752 mmHg 74%
11:00 +7°C° 0.1 mm 5 mps 751 mmHg 67%
12:00 +7°C° 0.1 mm 5 mps 751 mmHg 61%
13:00 +7°C° 0 mm 4 mps 751 mmHg 62%
14:00 +7°C° 0 mm 4 mps 751 mmHg 64%
15:00 +7°C° 0 mm 4 mps 750 mmHg 65%
16:00 +7°C° 0.2 mm 4 mps 750 mmHg 72%
17:00 +7°C° 0.2 mm 4 mps 750 mmHg 78%
18:00 +6°C° 0.2 mm 4 mps 750 mmHg 85%
19:00 +6°C° 0.1 mm 4 mps 750 mmHg 87%
20:00 +6°C° 0.1 mm 5 mps 750 mmHg 89%
21:00 +6°C° 0.1 mm 5 mps 750 mmHg 91%
22:00 +6°C° 0 mm 4 mps 750 mmHg 90%
23:00 +6°C° 0 mm 4 mps 749 mmHg 90%

31 October, Saturday

Time Temperature Precipitation Wind Pressure Humidity
00:00 +7°C° 0 mm 3 mps 749 mmHg 90%
01:00 +7°C° 0.1 mm 3 mps 749 mmHg 90%
02:00 +7°C° 0.1 mm 3 mps 749 mmHg 91%
03:00 +7°C° 0.1 mm 2 mps 749 mmHg 91%
04:00 +7°C° 0.2 mm 2 mps 749 mmHg 91%
05:00 +7°C° 0.2 mm 2 mps 749 mmHg 92%
06:00 +7°C° 0.2 mm 2 mps 749 mmHg 92%
07:00 +7°C° 0.1 mm 2 mps 749 mmHg 92%
08:00 +7°C° 0.1 mm 2 mps 749 mmHg 92%
09:00 +7°C° 0.1 mm 2 mps 749 mmHg 92%
10:00 +8°C° 0.1 mm 2 mps 749 mmHg 91%
11:00 +8°C° 0.1 mm 2 mps 749 mmHg 90%
12:00 +9°C° 0.1 mm 1 mps 749 mmHg 88%
13:00 +9°C° 0 mm 1 mps 750 mmHg 88%
14:00 +9°C° 0 mm 1 mps 750 mmHg 87%
15:00 +10°C° 0 mm 1 mps 750 mmHg 87%
16:00 +9°C° 0 mm 1 mps 750 mmHg 88%
17:00 +8°C° 0 mm 2 mps 750 mmHg 89%
18:00 +8°C° 0 mm 2 mps 751 mmHg 91%
19:00 +8°C° 0 mm 2 mps 751 mmHg 90%
20:00 +8°C° 0 mm 2 mps 751 mmHg 90%
21:00 +8°C° 0 mm 3 mps 752 mmHg 89%
22:00 +8°C° 0 mm 3 mps 752 mmHg 89%
23:00 +8°C° 0 mm 3 mps 752 mmHg 89%

1 November, Sunday

Time Temperature Precipitation Wind Pressure Humidity
00:00 +8°C° 0 mm 3 mps 753 mmHg 89%
01:00 +7°C° 0 mm 3 mps 753 mmHg 90%
02:00 +7°C° 0 mm 3 mps 753 mmHg 90%
03:00 +7°C° 0 mm 3 mps 753 mmHg 90%
04:00 +6°C° 0 mm 4 mps 753 mmHg 90%
05:00 +6°C° 0 mm 4 mps 754 mmHg 90%
06:00 +6°C° 0 mm 4 mps 754 mmHg 90%
07:00 +6°C° 0 mm 5 mps 754 mmHg 89%
08:00 +6°C° 0 mm 5 mps 754 mmHg 88%
09:00 +7°C° 0 mm 5 mps 755 mmHg 86%
10:00 +7°C° 0 mm 5 mps 755 mmHg 83%
11:00 +8°C° 0 mm 5 mps 755 mmHg 80%
12:00 +9°C° 0 mm 5 mps 755 mmHg 77%
13:00 +9°C° 0 mm 5 mps 755 mmHg 75%
14:00 +10°C° 0 mm 5 mps 755 mmHg 73%
15:00 +10°C° 0 mm 5 mps 756 mmHg 72%
16:00 +9°C° 0 mm 5 mps 756 mmHg 75%
17:00 +10°C° 0 mm 4 mps 756 mmHg 79%
18:00 +8°C° 0 mm 4 mps 756 mmHg 82%
19:00 +7°C° 0 mm 5 mps 757 mmHg 84%
20:00 +7°C° 0 mm 5 mps 757 mmHg 85%
21:00 +7°C° 0 mm 5 mps 757 mmHg 87%
22:00 +7°C° 0 mm 5 mps 757 mmHg 88%
23:00 +6°C° 0 mm 4 mps 757 mmHg 89%

2 November, Monday

Time Temperature Precipitation Wind Pressure Humidity
00:00 +6°C° 0 mm 4 mps 758 mmHg 90%
01:00 +6°C° 0 mm 4 mps 758 mmHg 91%
02:00 +6°C° 0 mm 4 mps 758 mmHg 92%
03:00 +5°C° 0 mm 4 mps 759 mmHg 92%
04:00 +6°C° 0 mm 4 mps 759 mmHg 91%
05:00 +6°C° 0 mm 4 mps 759 mmHg 90%
06:00 +6°C° 0 mm 4 mps 759 mmHg 89%
07:00 +6°C° 0 mm 4 mps 759 mmHg 87%
08:00 +6°C° 0 mm 4 mps 760 mmHg 86%
09:00 +7°C° 0 mm 4 mps 760 mmHg 84%
10:00 +8°C° 0 mm 4 mps 760 mmHg 78%
11:00 +9°C° 0 mm 5 mps 760 mmHg 72%
12:00 +10°C° 0 mm 5 mps 760 mmHg 67%
13:00 +12°C° 0 mm 4 mps 760 mmHg 66%
14:00 +12°C° 0 mm 4 mps 760 mmHg 65%
15:00 +12°C° 0 mm 4 mps 760 mmHg 65%
16:00 +11°C° 0 mm 4 mps 761 mmHg 70%
17:00 +10°C° 0 mm 4 mps 761 mmHg 75%
18:00 +9°C° 0 mm 3 mps 761 mmHg 81%
19:00 +9°C° 0 mm 3 mps 761 mmHg 82%
20:00 +7°C° 0 mm 4 mps 762 mmHg 84%
21:00 +7°C° 0 mm 4 mps 762 mmHg 85%
22:00 +6°C° 0 mm 4 mps 762 mmHg 86%
23:00 +7°C° 0 mm 3 mps 762 mmHg 87%
Show more